Weather History for Saranac Lake, NY

Change the Weather History Date:

Monday, March 18, 2013

  Actual Average Record
Temperature  
Mean Temperature 8 °F 25 °F  
Max Temperature 30 °F 37 °F 76 °F (2012)
Min Temperature -14 °F 13 °F -18 °F (2014)
Degree Days  
Heating Degree Days 57 40  
Month to date heating degree days 761 781  
Since 1 July heating degree days 7018 7486  
Cooling Degree Days 0 0  
Month to date cooling degree days 0 0  
Year to date cooling degree days 0 0  
Moisture  
Dew Point -3 °F    
Average Humidity 61    
Maximum Humidity 87    
Minimum Humidity 35    
Precipitation  
Precipitation T in 0.09 in 0.88 in (1989)
Month to date precipitation 0.55 1.16  
Year to date precipitation 2.44 4.90  
Sea Level Pressure  
Sea Level Pressure 30.28 in    
Wind  
Wind Speed 4 mph (ENE)    
Max Wind Speed 14 mph    
Max Gust Speed 16 mph    
Visibility 10 miles    
Events Snow    
T = Trace of Precipitation, MM = Missing Value Source: NWS Daily Summary

Daily Weather History Graph

Daily Weather History Graph

Search for Another Location

Airport:

Trip Planner

Search our weather history database for the weather conditions in past years. The results will help you decide how hot, cold, wet, or windy it might be!

Date:

Astronomy

Mar. 18, 2013 Rise Set
Actual Time 7:03 AM EDT 7:07 PM EDT
Civil Twilight 6:34 AM EDT 7:36 PM EDT
Nautical Twilight 6:00 AM EDT 8:09 PM EDT
Astronomical Twilight 5:25 AM EDT 8:44 PM EDT
Moon 10:47 AM EDT (3/18) 1:16 AM EDT (3/18)
Length of Visible Light 13h 01m
Length of Day
12h 03m
Waxing Crescent, 40% of the Moon is Illuminated
Mar 18
Waxing Crescent
Mar 19
First Quarter
Mar 27
Full
Apr 3
Last Quarter
Apr 10
New

Hourly Weather History & Observations

Time (EDT) Temp. Windchill Dew Point Humidity Pressure Visibility Wind Dir Wind Speed Gust Speed Precip Events Conditions
12:51 AM -7.1 °F - -11.0 °F 83% 30.37 in 10.0 mi Calm Calm - N/A   Clear
1:51 AM -9.0 °F - -13.0 °F 83% 30.38 in 10.0 mi Calm Calm - N/A   Clear
2:51 AM -11.0 °F -20.4 °F -15.0 °F 83% 30.38 in 10.0 mi NNE 3.5 mph - N/A   Clear
3:51 AM -11.0 °F - -16.1 °F 78% 30.38 in 10.0 mi Calm Calm - N/A   Clear
4:51 AM -13.0 °F - -17.0 °F 82% 30.38 in 10.0 mi Calm Calm - N/A   Clear
5:51 AM -13.0 °F - -17.0 °F 82% 30.40 in 10.0 mi Calm Calm - N/A   Clear
6:51 AM -13.0 °F - -18.0 °F 78% 30.42 in 10.0 mi Calm Calm - N/A   Clear
7:51 AM -9.9 °F - -15.0 °F 78% 30.42 in 10.0 mi Calm Calm - N/A   Clear
8:51 AM -0.0 °F - -5.1 °F 79% 30.42 in 10.0 mi Calm Calm - N/A   Clear
9:51 AM 10.9 °F - -0.0 °F 61% 30.42 in 10.0 mi Calm Calm - N/A   Clear
10:51 AM 19.0 °F - -0.9 °F 42% 30.39 in 10.0 mi Calm Calm - N/A   Clear
11:51 AM 25.0 °F - -0.9 °F 33% 30.36 in 9.0 mi Calm Calm - 0.00 in   Clear
12:51 PM 27.0 °F - -2.0 °F 29% 30.33 in 9.0 mi Calm Calm - 0.00 in Snow Light Snow
1:51 PM 28.9 °F 25.2 °F -2.0 °F 26% 30.30 in 10.0 mi ESE 3.5 mph - N/A   Clear
3:51 PM 28.9 °F 20.4 °F 6.1 °F 38% 30.23 in 10.0 mi ENE 9.2 mph - 0.00 in   Clear
4:51 PM 28.9 °F 18.6 °F 6.1 °F 38% 30.19 in 10.0 mi ENE 12.7 mph - N/A   Clear
5:51 PM 28.0 °F 19.3 °F 6.1 °F 39% 30.18 in 10.0 mi ENE 9.2 mph - N/A   Clear
6:51 PM 27.0 °F 21.6 °F 7.0 °F 43% 30.15 in 10.0 mi ENE 4.6 mph - N/A   Clear
7:51 PM 26.1 °F 18.4 °F 8.1 °F 47% 30.14 in 10.0 mi ENE 6.9 mph - N/A   Clear
8:51 PM 26.1 °F 20.5 °F 3.9 °F 39% 30.12 in 10.0 mi ENE 4.6 mph - N/A   Overcast
9:51 PM 26.1 °F 18.4 °F 3.9 °F 39% 30.09 in 10.0 mi ENE 6.9 mph - N/A   Overcast
10:51 PM 27.0 °F 20.5 °F 8.1 °F 45% 30.03 in 10.0 mi SE 5.8 mph - N/A   Overcast
11:51 PM 26.1 °F 20.5 °F 12.9 °F 58% 29.98 in 8.0 mi ENE 4.6 mph - N/A   Overcast